Satellite: AUBIESAT Catalog number: 37854 Epoch time: 13276.68431672 Element set: 599 Inclination: 101.7022 deg RA of node: 181.7053 deg Eccentricity: 0.0232460 Arg of perigee: 074.4625 deg Mean anomaly: 341.4333 deg Mean motion: 14.85173557 rev/day Decay rate: 6.435e-05 rev/day^2 Epoch rev: 10456 Checksum: 298
Satellite: HRBE Catalog number: 37855 Epoch time: 13276.71007295 Element set: 606 Inclination: 101.7022 deg RA of node: 181.4177 deg Eccentricity: 0.0233562 Arg of perigee: 075.0125 deg Mean anomaly: 315.7207 deg Mean motion: 14.84798672 rev/day Decay rate: 5.959e-05 rev/day^2 Epoch rev: 10455 Checksum: 305
Satellite: RS-39 Catalog number: 38051 Epoch time: 13276.78639823 Element set: 852 Inclination: 051.6334 deg RA of node: 045.2637 deg Eccentricity: 0.0010687 Arg of perigee: 299.2002 deg Mean anomaly: 145.1762 deg Mean motion: 15.35527732 rev/day Decay rate: 2.1659e-04 rev/day^2 Epoch rev: 9445 Checksum: 323
Satellite: E-STAR Catalog number: 38079 Epoch time: 13276.44546448 Element set: 493 Inclination: 069.4702 deg RA of node: 280.8981 deg Eccentricity: 0.0572570 Arg of perigee: 352.3931 deg Mean anomaly: 120.6089 deg Mean motion: 14.57001433 rev/day Decay rate: 9.9167e-04 rev/day^2 Epoch rev: 8545 Checksum: 333
Satellite: GOLIAT Catalog number: 38085 Epoch time: 13276.67540276 Element set: 432 Inclination: 069.4724 deg RA of node: 283.4586 deg Eccentricity: 0.0584494 Arg of perigee: 353.6549 deg Mean anomaly: 005.7499 deg Mean motion: 14.54414505 rev/day Decay rate: 8.0964e-04 rev/day^2 Epoch rev: 8540 Checksum: 344
Satellite: HORYU-2 Catalog number: 38340 Epoch time: 13276.11645427 Element set: 627 Inclination: 098.2271 deg RA of node: 224.7790 deg Eccentricity: 0.0011217 Arg of perigee: 273.8085 deg Mean anomaly: 086.1933 deg Mean motion: 14.71193856 rev/day Decay rate: 1.369e-05 rev/day^2 Epoch rev: 7398 Checksum: 319
Satellite: RS-40 Catalog number: 38736 Epoch time: 13275.61829704 Element set: 390 Inclination: 082.4738 deg RA of node: 088.1427 deg Eccentricity: 0.0022174 Arg of perigee: 091.8643 deg Mean anomaly: 268.4975 deg Mean motion: 12.42871286 rev/day Decay rate: 1.0e-07 rev/day^2 Epoch rev: 5359 Checksum: 323
Satellite: PROITERES Catalog number: 38756 Epoch time: 13276.84250579 Element set: 182 Inclination: 098.2458 deg RA of node: 355.8471 deg Eccentricity: 0.0013857 Arg of perigee: 118.2491 deg Mean anomaly: 242.0112 deg Mean motion: 14.74349752 rev/day Decay rate: 1.144e-05 rev/day^2 Epoch rev: 5740 Checksum: 310
Satellite: RAIKO Catalog number: 38852 Epoch time: 13218.07382584 Element set: 340 Inclination: 051.6160 deg RA of node: 184.0336 deg Eccentricity: 0.0004489 Arg of perigee: 261.9162 deg Mean anomaly: 100.6538 deg Mean motion: 16.48474690 rev/day Decay rate: 2.4681979e-01 rev/day^2 Epoch rev: 4784 Checksum: 326
Satellite: FITSAT 1 Catalog number: 38853 Epoch time: 13184.86912902 Element set: 315 Inclination: 051.6252 deg RA of node: 351.6077 deg Eccentricity: 0.0011722 Arg of perigee: 245.9321 deg Mean anomaly: 114.2104 deg Mean motion: 16.39337660 rev/day Decay rate: 6.638326e-02 rev/day^2 Epoch rev: 4270 Checksum: 289
Satellite: TechEdSat Catalog number: 38854 Epoch time: 13124.93253577 Element set: 290 Inclination: 051.6449 deg RA of node: 297.0261 deg Eccentricity: 0.0010505 Arg of perigee: 310.8629 deg Mean anomaly: 049.0629 deg Mean motion: 16.38844728 rev/day Decay rate: 1.1592855e-01 rev/day^2 Epoch rev: 3329 Checksum: 325
Satellite: F 1 Catalog number: 38855 Epoch time: 13129.77714356 Element set: 287 Inclination: 051.5085 deg RA of node: 272.4145 deg Eccentricity: 0.0008326 Arg of perigee: 194.2908 deg Mean anomaly: 166.5495 deg Mean motion: 16.49710473 rev/day Decay rate: 2.7424026e-01 rev/day^2 Epoch rev: 3394 Checksum: 332
Satellite: WeWish Catalog number: 38856 Epoch time: 13069.98095549 Element set: 248 Inclination: 051.6166 deg RA of node: 215.0521 deg Eccentricity: 0.0008325 Arg of perigee: 316.0438 deg Mean anomaly: 044.8765 deg Mean motion: 16.41348316 rev/day Decay rate: 1.6701328e-01 rev/day^2 Epoch rev: 2458 Checksum: 318
Satellite: OSSI-1 Catalog number: 39131 Epoch time: 13188.41684431 Element set: 8 Inclination: 064.8841 deg RA of node: 114.8425 deg Eccentricity: 0.0051126 Arg of perigee: 026.6892 deg Mean anomaly: 350.0589 deg Mean motion: 16.22925119 rev/day Decay rate: 1.502874e-02 rev/day^2 Epoch rev: 1237 Checksum: 296
Satellite: BEESAT-3 Catalog number: 39134 Epoch time: 13276.83568782 Element set: 386 Inclination: 064.8773 deg RA of node: 227.1715 deg Eccentricity: 0.0002012 Arg of perigee: 268.3895 deg Mean anomaly: 091.7024 deg Mean motion: 15.01066132 rev/day Decay rate: 4.452e-05 rev/day^2 Epoch rev: 2513 Checksum: 295
Satellite: BEESAT-2 Catalog number: 39136 Epoch time: 13276.04089473 Element set: 378 Inclination: 064.8775 deg RA of node: 229.7050 deg Eccentricity: 0.0001904 Arg of perigee: 273.4453 deg Mean anomaly: 086.6459 deg Mean motion: 15.00950401 rev/day Decay rate: 3.361e-05 rev/day^2 Epoch rev: 2501 Checksum: 293
/EX
participants (1)
-
Ray Hoad